Wind_Speed
50 46 42 39 39 43 45 50 57 57 55 52 47 45 43 41 39 37 39 39 38 38 36 37 39 36 33 33 32 35 38 38 38 37 38 37 35 33 34 35 37 38 38 35 32 29 29 31 33 33 33 33 33 34 35 35 37 38 38 38 40 41 42 42 42 41 40 38 36 33 29 27 26 24 23 22 23 23 23 23 23 23 24 27 30
51 47 41 36 36 41 44 49 57 58 55 53 50 45 43 43 41 38 38 38 36 35 35 38 41 39 38 38 38 40 43 45 45 44 43 42 38 36 37 38 38 39 37 32 29 27 28 30 32 33 32 31 32 34 36 36 37 37 37 38 40 40 40 40 40 40 39 37 34 31 28 26 25 23 22 22 22 22 23 23 24 24 26 29 31
50 46 39 34 35 39 43 48 56 58 56 54 50 46 45 44 43 40 38 38 36 34 35 39 41 40 39 38 38 40 43 46 47 45 44 42 38 36 36 37 38 37 33 29 26 25 25 27 30 32 32 32 33 35 35 35 35 34 34 35 36 35 35 36 37 36 35 32 29 28 26 25 24 23 22 22 23 23 25 26 26 27 29 31 33
49 45 38 32 33 38 41 47 55 58 56 53 49 47 47 45 43 42 40 39 36 35 36 39 40 40 39 38 38 39 41 43 43 42 39 36 34 34 35 37 36 33 28 25 24 22 22 23 26 28 29 30 32 34 35 34 32 30 29 29 31 32 33 34 32 31 29 27 26 25 25 24 23 23 23 24 24 25 26 27 28 30 31 33 34
47 42 37 31 31 35 39 45 54 58 56 53 49 47 48 46 44 43 42 41 38 35 35 37 40 40 40 40 39 38 38 38 37 36 35 34 35 36 37 37 33 28 25 23 22 21 21 22 24 25 25 26 28 29 30 28 27 26 26 28 31 33 33 32 30 28 26 24 23 22 21 21 21 21 22 23 24 26 27 28 29 30 31 32 32
44 40 36 30 28 32 37 43 51 57 56 51 48 47 47 47 45 44 44 43 42 39 36 35 37 39 40 41 40 39 40 40 40 40 39 39 39 39 37 34 30 26 23 22 21 21 22 23 24 24 23 23 23 23 22 22 21 22 25 28 31 31 30 28 27 24 22 20 18 17 17 17 17 18 19 21 22 23 25 26 27 28 28 28 28
42 38 34 30 27 29 34 40 49 56 55 51 47 45 45 44 43 43 45 47 45 43 40 37 36 38 40 41 41 42 43 43 44 43 42 40 40 38 35 32 29 25 20 19 20 21 23 24 24 23 21 20 19 18 18 17 17 18 19 21 23 23 21 19 18 17 16 14 13 13 13 14 15 16 17 18 19 21 22 24 25 25 25 26 27
40 36 33 29 26 27 31 38 46 53 54 52 48 44 43 42 41 41 45 48 48 47 45 43 40 39 40 40 40 41 42 43 43 43 41 39 38 36 33 31 29 25 21 19 20 21 23 24 22 20 19 18 18 18 17 16 16 17 17 16 15 14 13 13 14 13 12 12 12 12 13 14 14 15 16 17 18 20 21 22 23 24 25 27 29
38 34 31 28 25 25 29 35 42 48 52 53 50 46 44 43 42 42 43 46 48 48 47 47 45 42 41 40 39 40 41 41 42 41 39 37 35 34 32 31 30 30 29 27 24 22 23 23 20 18 18 18 19 20 21 20 19 19 19 17 16 13 12 14 15 12 11 13 14 14 15 16 16 16 17 18 19 20 21 22 24 26 27 29 30
38 34 30 27 25 24 26 32 39 45 50 54 53 49 47 45 43 44 43 42 45 47 47 48 49 47 44 41 39 39 39 39 38 37 36 34 34 35 34 33 31 31 31 30 26 23 22 22 21 20 20 20 21 23 23 23 22 21 21 20 19 17 17 17 16 14 15 16 17 18 19 19 19 20 20 21 22 23 23 24 25 27 28 29 30
37 34 31 28 26 25 25 28 35 41 47 53 55 54 52 49 47 47 45 43 45 47 48 50 51 52 50 46 42 39 38 37 37 37 36 35 36 36 36 35 33 32 31 29 27 25 24 23 23 23 23 24 25 26 26 25 25 25 24 23 22 22 21 20 20 19 19 20 21 22 23 24 24 24 25 25 25 26 27 27 28 29 30 31 31
37 35 32 29 27 26 26 26 31 38 44 49 54 57 57 54 51 50 48 46 47 47 48 50 51 52 52 50 46 42 39 38 39 39 39 38 39 38 38 38 37 35 34 32 30 30 29 27 26 26 26 27 28 29 30 29 29 28 28 27 26 26 25 24 24 23 23 24 25 26 27 28 29 29 30 30 31 31 32 33 33 34 35 36 37
38 35 34 31 29 28 28 28 29 34 41 46 51 56 59 58 55 53 53 51 50 49 49 49 49 49 50 50 49 47 44 42 43 43 42 42 42 41 41 41 40 37 36 35 34 34 34 33 33 32 31 30 31 32 33 33 32 31 31 31 30 29 28 28 28 28 28 29 29 29 30 31 32 33 34 35 36 37 38 39 39 40 41 42 42
39 36 35 34 32 31 30 31 31 33 37 44 49 53 57 58 56 55 55 54 53 52 51 50 48 48 49 50 50 49 48 47 46 46 44 43 43 43 43 43 41 38 37 36 35 35 36 37 37 37 37 35 34 34 34 34 33 34 35 35 34 33 32 32 32 32 33 34 33 32 33 34 34 36 36 37 39 40 41 43 43 44 45 46 47
40 38 37 37 36 35 34 34 34 35 37 42 47 50 54 56 56 55 55 55 54 54 52 50 48 47 48 48 49 49 48 47 47 47 46 45 45 45 45 44 43 41 40 38 37 36 36 36 37 38 39 38 37 36 36 37 37 38 38 38 37 36 36 36 36 36 37 38 36 34 35 36 37 38 39 40 41 42 43 44 46 47 49 50 50
41 39 38 39 39 38 38 37 37 38 39 42 46 49 52 54 55 55 54 53 53 51 50 48 47 47 48 49 49 50 49 48 49 49 49 48 47 46 46 45 44 43 42 41 39 38 38 38 38 38 38 38 38 38 38 40 41 40 40 40 40 39 39 40 40 40 41 42 41 39 38 39 40 41 42 42 42 43 45 46 48 50 51 52 53
42 40 39 40 42 42 42 42 41 41 43 45 47 49 51 52 54 55 55 54 52 51 50 49 48 49 50 50 50 50 50 50 51 51 50 49 48 47 46 45 44 43 43 42 42 42 41 41 41 41 40 40 40 40 41 42 42 41 41 42 42 43 43 43 44 44 44 46 46 44 43 43 44 44 44 45 46 47 48 49 50 52 53 54 55
43 42 41 41 43 45 46 47 46 44 45 48 49 51 52 52 53 54 55 55 55 55 54 53 51 51 50 50 50 50 50 51 51 51 50 49 48 47 46 45 44 44 43 43 44 44 44 44 44 44 43 43 43 43 44 44 44 44 44 44 45 45 46 46 47 47 47 49 49 48 48 47 47 48 48 49 49 50 52 53 53 54 55 57 57
43 43 43 43 44 46 49 50 51 49 48 49 52 53 54 54 54 54 55 56 58 59 58 57 55 53 51 51 50 50 49 50 50 50 49 48 47 47 47 47 47 46 46 46 47 47 47 47 47 46 46 46 46 47 47 48 48 48 47 47 47 48 48 49 50 50 50 52 52 52 51 51 50 51 52 52 52 53 55 57 57 57 58 59 60
46 44 45 45 46 47 50 53 55 55 53 51 52 54 56 56 57 56 56 57 59 60 60 60 58 56 54 52 52 52 53 52 51 50 49 48 47 47 47 47 47 48 48 49 49 50 51 51 50 50 49 50 50 50 50 51 51 51 50 50 50 50 51 52 52 53 53 54 54 54 54 54 53 54 55 55 55 55 57 59 60 60 61 62 64
50 47 46 46 47 48 51 54 57 60 60 57 55 55 57 58 59 59 59 59 60 61 62 62 61 60 58 56 54 55 56 56 55 53 51 49 49 49 48 48 47 47 48 49 49 51 53 54 55 54 52 52 52 53 52 53 53 53 53 53 53 53 54 55 55 56 55 56 56 57 56 56 56 57 57 57 58 58 59 60 62 63 64 66 67
54 52 49 48 48 49 51 54 57 61 64 64 60 58 58 59 61 62 62 62 63 63 64 64 64 64 63 61 59 58 59 60 60 58 55 53 51 50 50 49 49 49 50 51 51 53 54 56 56 55 53 53 53 53 53 54 55 55 55 56 56 57 57 58 58 58 58 58 59 59 58 58 59 59 59 60 61 61 62 63 64 66 68 69 70
58 56 54 52 50 50 52 54 57 61 65 68 67 64 61 60 62 63 64 64 65 65 66 66 65 65 65 65 64 63 62 63 63 63 61 58 53 49 48 49 51 52 53 53 53 53 54 55 55 54 53 53 54 55 56 57 58 58 59 59 60 61 61 61 61 62 62 61 61 60 60 60 61 61 62 63 64 65 66 67 68 69 71 73 74
62 60 59 57 55 53 52 54 57 60 64 69 71 71 68 65 63 64 65 66 66 66 67 67 67 67 67 67 68 67 66 64 64 65 65 62 58 54 52 53 54 55 56 55 54 54 55 56 56 56 55 56 57 59 60 62 63 63 64 65 65 65 65 65 64 64 63 63 62 62 62 63 64 64 64 65 67 68 70 71 72 73 75 76 77
65 64 62 61 60 57 56 55 57 60 63 67 71 74 74 72 69 66 66 67 68 69 69 68 68 68 69 69 70 70 69 68 67 66 67 66 63 60 58 58 59 59 58 57 57 57 58 58 59 60 60 61 62 63 64 65 66 66 66 66 66 66 66 65 65 65 65 65 65 66 66 67 67 67 68 69 71 73 74 75 76 77 78 79 79
67 66 65 64 63 62 60 58 58 60 63 65 69 73 76 77 76 73 70 69 69 70 72 72 71 70 70 71 72 72 71 70 70 69 69 68 67 63 60 59 62 63 62 61 61 62 62 62 63 63 64 65 65 66 67 68 67 67 68 67 67 67 67 67 68 69 70 71 70 70 71 71 72 72 73 74 76 77 78 79 80 80 81 82 83
69 68 67 66 66 65 64 63 62 62 63 65 68 71 75 78 80 79 77 74 72 71 71 73 74 74 73 72 72 73 73 73 72 73 73 72 71 68 64 62 64 66 66 66 66 67 67 67 67 67 68 68 68 70 72 73 73 72 72 72 72 72 72 72 73 74 76 76 76 75 75 76 76 77 77 79 79 80 81 82 83 84 85 85 86
71 70 69 68 68 68 67 67 66 65 65 66 68 70 73 76 80 82 82 80 78 76 74 73 74 76 76 75 74 74 74 75 76 76 76 76 76 76 74 71 70 70 71 71 72 72 73 73 72 73 73 73 74 74 76 77 78 78 78 78 78 78 77 77 78 79 80 80 80 80 80 80 80 80 81 81 82 83 84 85 87 88 88 89 89
72 71 70 69 68 69 69 69 69 69 68 68 68 70 72 74 77 81 84 84 84 82 80 77 75 75 76 77 78 78 77 77 78 79 79 79 79 79 80 79 78 78 78 77 76 77 78 78 79 79 79 79 79 80 81 81 82 82 82 82 81 82 82 82 82 83 84 85 84 84 84 83 83 83 83 84 85 86 87 89 90 91 92 93 93
70 70 70 69 68 68 69 69 70 70 70 70 70 71 72 74 76 79 82 85 86 86 85 84 81 79 77 77 78 80 81 81 81 80 81 81 81 82 82 82 83 84 85 84 82 81 82 82 82 82 83 83 84 85 85 85 85 85 85 85 84 84 85 86 87 88 89 88 88 87 87 86 85 86 86 87 88 90 91 92 93 94 95 95 96
67 67 67 67 67 67 67 68 69 70 71 72 72 72 72 73 76 78 80 82 85 87 87 87 87 85 83 81 79 79 81 83 84 85 84 84 83 84 84 85 85 86 88 89 89 89 88 88 87 86 86 86 87 88 88 88 88 88 89 89 88 88 88 90 92 92 92 91 90 90 89 89 88 89 90 91 92 93 94 95 96 96 97 97 98
62 63 63 64 65 65 66 66 67 68 70 71 72 73 73 73 75 77 79 80 82 84 86 88 89 89 89 88 86 83 82 83 85 87 88 89 88 87 87 87 89 90 91 91 92 92 93 92 92 91 90 90 91 92 91 91 91 92 92 93 93 93 93 93 94 94 93 92 91 91 92 92 92 92 93 94 96 96 97 97 98 98 99 100 101
57 58 59 59 61 62 63 64 65 66 67 69 70 72 73 74 74 76 78 79 80 81 83 86 88 90 91 92 92 90 88 86 85 86 88 91 92 92 92 91 92 93 94 94 95 95 95 95 94 94 94 95 95 95 95 95 95 95 95 96 96 97 96 96 95 94 94 93 93 93 94 95 95 96 97 98 99 99 100 100 100 101 101 102 103
53 54 55 56 57 58 59 61 62 63 64 66 67 69 71 72 73 74 76 78 79 81 82 83 85 87 90 92 93 94 94 93 91 90 89 89 91 93 95 96 96 96 96 96 97 97 97 97 97 97 97 97 97 98 98 98 97 97 97 97 97 97 97 97 96 95 95 95 95 95 96 97 98 99 100 101 101 102 102 103 103 103 104 104 105
50 50 51 52 54 55 56 58 59 61 62 63 65 66 68 70 71 72 74 76 77 80 82 83 84 84 86 88 91 93 95 96 96 96 94 93 92 92 94 96 98 99 100 99 99 99 99 99 99 99 99 99 99 99 99 99 99 99 99 99 99 99 99 98 98 97 97 97 97 98 99 100 101 102 103 103 103 104 104 104 105 105 105 105 105
49 49 50 50 51 52 54 55 57 58 60 61 63 64 66 68 70 71 72 74 75 77 80 82 84 84 84 85 87 89 91 94 96 97 98 98 96 95 94 95 97 98 100 101 102 102 102 102 102 102 101 101 101 101 101 101 101 101 101 101 101 101 101 101 100 100 100 100 101 101 102 103 103 104 104 104 105 105 105 105 105 105 105 105 105
48 49 49 50 51 51 52 53 54 56 58 59 61 62 64 66 68 70 71 72 74 76 77 79 82 84 85 85 86 86 88 90 92 95 96 98 98 98 98 98 98 98 99 100 101 102 102 103 103 103 103 103 103 102 102 102 102 102 102 102 102 102 102 103 103 103 103 103 103 104 104 104 105 105 105 105 105 105 105 105 105 105 104 104 104
48 48 48 49 50 51 52 52 53 54 55 57 59 60 62 64 66 69 70 72 73 74 76 78 80 82 84 85 86 86 87 88 89 91 93 95 96 97 98 99 99 99 100 100 101 101 101 102 102 103 103 103 103 103 103 103 103 103 103 103 103 104 104 104 104 104 104 104 104 104 104 104 105 105 105 104 104 104 104 104 104 104 103 103 103
48 48 48 48 48 48 50 51 53 53 54 55 56 58 60 62 64 66 69 71 72 74 76 77 79 81 83 85 86 87 87 88 88 89 90 92 94 95 97 98 99 100 100 101 101 102 102 102 102 103 103 103 103 103 103 104 104 104 104 104 104 104 104 105 104 104 104 104 104 104 104 104 104 104 104 104 104 103 103 103 103 103 103 103 103
46 47 47 48 48 48 48 49 50 52 54 55 55 56 57 59 62 64 66 69 71 73 75 77 78 80 82 84 86 87 88 89 89 89 89 90 92 93 95 96 97 98 99 100 101 101 102 103 103 103 103 103 103 103 103 103 103 103 103 103 103 103 103 104 104 104 104 104 104 103 103 103 103 103 103 103 103 103 103 103 103 103 103 104 105
44 45 46 46 47 48 48 48 48 49 51 53 55 56 57 58 59 61 63 66 68 70 73 75 77 79 81 83 85 87 89 89 90 89 89 90 91 92 94 95 96 97 98 99 100 100 101 102 103 104 104 104 104 104 103 103 103 103 103 102 102 102 102 102 102 103 103 103 103 103 103 103 102 103 103 103 103 103 103 103 104 104 105 106 106
44 44 45 45 46 46 47 48 48 48 48 50 52 54 56 58 59 60 61 63 65 67 70 72 74 77 79 81 83 86 88 90 90 90 90 90 91 91 93 94 95 96 97 98 99 100 101 101 102 103 104 104 104 105 105 104 104 104 103 103 103 102 102 102 102 102 102 103 103 103 103 103 103 104 104 104 104 105 105 105 106 106 107 108 108
42 43 44 45 45 45 46 47 48 48 48 48 49 50 53 56 58 59 61 62 63 64 66 68 71 73 76 78 81 84 86 89 90 91 91 91 91 91 92 93 95 96 97 97 98 99 100 101 101 102 103 104 104 105 105 105 105 105 105 105 104 104 104 103 103 103 103 103 103 104 104 104 105 105 105 106 106 107 107 107 108 109 109 110 111
40 41 43 44 45 45 46 46 46 47 48 48 48 48 49 52 55 57 59 60 62 63 64 66 67 69 71 74 77 80 83 87 89 91 91 91 92 92 92 93 94 95 96 97 97 98 99 100 100 101 102 103 104 104 105 105 106 106 106 106 106 105 105 105 105 105 105 105 105 105 105 106 106 107 107 108 108 109 109 110 110 111 111 112 113
37 38 39 41 43 44 45 45 46 46 46 47 48 48 48 49 51 53 55 57 59 62 63 64 65 66 68 70 72 75 78 82 85 88 90 91 92 92 93 93 94 95 96 97 97 98 98 99 99 100 101 102 103 104 104 105 106 106 106 106 106 107 107 107 107 107 107 107 107 107 107 107 108 108 109 109 109 110 110 111 111 112 112 112 113
36 36 37 38 40 41 43 44 45 45 45 46 46 46 47 47 49 50 51 53 55 58 60 62 64 65 66 67 69 71 73 76 79 83 86 89 91 92 93 94 95 96 96 97 98 98 99 99 99 100 101 101 102 102 103 104 104 105 105 106 107 107 107 108 108 108 108 108 108 108 108 109 109 109 110 110 110 110 111 111 112 112 112 112 112
36 35 35 36 37 38 40 42 43 44 44 45 45 45 45 45 46 47 48 50 52 54 56 58 61 63 65 66 67 68 70 72 74 77 80 83 87 89 92 94 95 96 97 98 98 99 99 100 100 101 101 102 102 102 103 103 103 104 104 105 105 106 107 107 107 108 108 108 108 108 108 109 109 109 109 110 110 110 110 110 111 111 111 111 111
35 35 34 34 35 36 38 39 40 41 42 43 44 44 43 44 44 44 45 46 48 51 53 55 57 59 62 64 66 67 68 70 71 73 75 78 81 83 86 89 92 94 96 98 99 99 100 101 101 102 102 103 103 103 104 104 104 104 105 105 105 106 106 106 107 107 107 107 107 108 108 108 108 108 108 109 109 109 109 110 110 110 110 110 110
36 35 34 33 34 35 36 37 38 38 39 41 42 42 42 42 43 42 42 42 44 47 49 52 53 55 58 61 63 65 66 68 69 71 72 74 76 78 80 83 86 89 91 94 96 98 99 100 101 102 103 103 104 104 104 105 105 105 105 106 106 106 106 107 107 107 107 107 108 108 108 108 108 108 109 109 109 109 110 110 110 110 110 110 110
38 37 35 34 33 34 35 36 36 37 37 38 39 40 41 41 42 42 40 40 40 42 45 47 50 52 54 56 59 61 64 66 68 69 70 72 73 75 77 78 80 82 84 87 89 92 94 96 98 99 101 102 103 104 104 105 105 106 106 106 106 107 107 107 108 108 108 108 109 109 109 109 109 109 109 109 109 109 109 109 109 108 108 107 106
39 38 37 35 34 33 33 34 35 35 35 36 37 38 38 39 40 40 40 39 38 39 41 43 45 48 50 51 54 57 59 62 64 66 68 70 71 73 74 76 77 78 80 81 83 85 87 89 91 93 95 96 98 99 101 102 103 103 104 105 105 106 106 107 107 108 108 108 108 108 108 108 108 107 107 107 107 106 106 105 105 104 102 101 99
Wind_Direction
295 291 287 280 265 250 239 227 220 219 218 218 221 226 226 228 232 232 233 236 238 235 232 235 239 240 241 243 246 252 256 258 259 263 268 273 275 276 279 284 288 292 293 287 278 270 261 254 247 240 239 242 244 247 251 254 258 260 262 264 267 270 274 276 278 279 280 280 278 274 271 270 270 269 266 262 259 258 259 260 262 264 265 266 266
296 294 290 279 260 245 237 227 220 219 218 217 221 226 225 227 231 231 231 233 235 233 231 232 237 242 246 247 250 254 258 260 261 263 266 270 271 272 276 281 287 291 289 279 272 268 260 253 245 238 238 242 246 251 253 256 258 260 264 267 270 272 275 277 278 278 278 277 274 271 269 268 267 265 262 260 260 261 263 265 265 265 265 266 267
296 295 290 276 257 243 236 227 220 219 218 217 220 224 223 225 229 229 228 230 232 233 231 230 233 240 245 247 248 253 257 260 260 262 264 265 266 269 273 279 287 291 284 271 267 267 262 255 249 243 242 243 246 252 256 259 263 267 270 272 273 275 277 277 277 276 275 274 271 270 268 267 265 262 260 260 262 264 266 267 266 264 264 264 266
296 294 289 274 256 244 236 226 219 218 217 218 221 223 221 224 228 228 226 226 230 234 234 232 232 236 241 243 245 249 254 257 258 259 260 260 263 268 274 282 288 289 278 267 265 265 261 257 254 251 249 248 249 253 257 262 267 271 273 272 273 276 276 275 273 271 270 269 268 267 266 266 263 260 258 257 258 260 262 263 263 263 263 265 267
296 292 287 274 255 245 237 226 219 216 216 218 222 222 221 224 228 228 227 225 228 232 234 234 232 233 237 239 242 246 250 254 258 259 261 264 267 272 278 282 285 284 274 266 265 264 260 255 253 251 251 251 253 255 259 263 268 271 273 272 272 274 273 271 269 268 267 266 265 265 266 266 264 262 260 258 257 258 259 260 262 263 264 266 267
295 289 284 274 256 245 238 228 219 215 215 218 222 221 222 227 230 231 230 228 228 230 232 235 235 234 234 236 238 245 251 257 261 263 265 267 270 274 276 277 280 280 271 265 266 264 259 254 252 251 252 253 255 256 259 263 268 274 277 276 275 274 271 268 268 267 265 263 263 263 265 266 265 265 264 263 263 264 264 264 263 264 265 267 270
292 285 280 272 257 245 238 229 220 215 215 217 218 219 224 231 233 234 234 232 230 230 232 235 237 236 235 236 240 246 252 257 260 262 264 267 270 272 271 270 273 275 270 269 270 266 259 255 253 253 252 251 250 250 256 265 276 285 287 284 279 272 269 269 269 266 264 263 263 265 266 267 267 267 268 267 267 267 266 267 266 267 269 271 273
289 281 276 271 259 245 237 229 221 216 215 215 215 219 226 233 236 236 236 236 235 234 236 238 239 237 236 237 241 246 251 256 259 262 264 267 268 268 265 262 264 267 271 278 279 271 263 259 257 255 249 244 243 246 252 260 272 285 290 290 282 270 271 274 264 258 264 269 272 276 276 276 275 274 274 274 273 272 272 273 274 273 274 274 276
286 276 270 267 261 248 236 229 222 218 215 213 213 218 224 229 234 237 238 238 237 238 240 241 241 239 237 239 242 245 249 254 258 260 263 264 263 261 257 255 258 263 270 278 278 271 265 262 259 254 247 243 245 250 256 261 270 280 285 288 285 275 276 276 263 264 283 285 283 284 283 284 285 284 284 284 285 287 287 287 285 282 281 282 283
283 272 264 261 260 251 238 229 223 219 215 213 213 217 220 223 228 233 237 239 239 238 239 240 241 242 244 246 246 244 247 253 256 257 256 256 256 257 253 251 255 260 266 273 272 265 264 263 259 256 253 251 251 256 263 270 277 281 281 283 285 282 281 280 274 281 293 291 290 290 289 290 291 291 291 291 292 295 295 296 293 290 289 290 291
279 268 259 254 255 252 242 231 223 219 216 215 216 217 218 220 225 229 234 237 239 238 238 240 243 245 248 251 250 247 247 250 252 252 250 248 251 254 253 252 256 259 262 267 266 262 262 261 259 260 261 261 261 261 264 269 273 277 278 280 283 284 285 284 281 284 288 289 291 292 292 293 293 292 292 292 292 294 294 295 295 294 294 294 295
276 265 255 248 248 250 245 235 226 222 219 217 218 220 221 222 225 229 231 234 237 238 239 242 244 247 249 251 252 251 249 246 247 249 249 246 248 251 252 253 257 261 263 264 263 260 259 257 257 261 264 265 265 265 265 267 270 272 276 278 281 284 284 283 282 283 285 287 290 292 293 293 292 292 292 292 292 292 293 294 295 296 296 296 297
274 263 253 244 240 243 245 240 231 225 223 221 221 222 223 224 225 228 230 232 235 237 239 242 244 246 248 251 253 254 252 247 245 247 249 248 248 250 252 254 257 260 262 263 262 259 258 258 259 263 265 266 267 266 266 266 268 271 275 278 281 281 280 279 281 283 285 288 291 292 290 290 291 292 292 292 292 293 294 294 295 295 296 297 298
273 262 251 243 236 233 238 241 237 230 226 226 225 225 226 226 226 227 230 233 235 238 240 242 244 245 248 250 252 253 252 249 247 247 248 248 248 249 251 253 256 257 257 259 259 258 257 258 260 263 265 267 268 268 265 265 268 271 275 279 280 279 277 276 279 282 284 288 291 290 289 290 291 291 291 291 292 293 294 294 294 294 295 296 297
272 263 251 243 235 229 228 234 238 235 230 229 229 229 229 229 227 227 230 233 236 239 242 243 244 245 245 247 248 248 248 246 245 245 246 248 248 249 250 252 254 256 256 255 255 254 254 255 256 260 263 264 266 266 265 265 268 272 276 278 279 279 277 276 279 281 282 286 290 290 289 290 289 290 291 292 293 294 293 292 291 292 293 294 296
270 263 253 244 236 229 224 226 232 235 233 230 230 231 232 231 230 229 229 231 235 238 240 242 242 243 243 243 243 243 243 242 242 243 246 248 249 250 250 251 252 254 255 254 253 252 252 252 253 256 259 261 262 263 263 264 267 271 274 275 276 278 277 276 277 279 280 284 288 288 288 288 289 291 293 293 293 292 290 289 290 291 292 294 295
268 263 256 246 238 231 225 222 225 229 231 231 230 231 232 232 232 231 230 230 231 233 235 238 239 241 242 242 241 240 240 240 241 243 245 247 248 249 250 251 251 252 253 254 253 251 250 251 252 255 257 258 259 259 260 262 265 268 270 271 273 276 276 275 275 278 279 281 283 285 287 289 292 292 292 292 293 292 290 289 291 292 293 295 296
266 263 257 249 241 234 228 223 222 224 227 229 230 231 232 233 233 232 231 231 230 229 231 234 236 238 239 239 239 239 239 239 241 244 246 247 247 248 249 249 249 250 251 251 251 251 251 251 253 255 257 258 258 258 259 261 263 265 266 267 268 270 272 274 275 278 279 280 283 285 288 291 293 291 290 292 293 292 290 291 293 294 294 295 297
262 262 258 252 243 236 231 226 222 222 223 225 227 230 231 232 233 232 231 231 230 230 230 232 233 234 235 237 238 238 239 239 241 243 245 247 248 248 249 249 250 251 252 253 253 252 252 253 254 255 257 258 259 259 259 260 262 264 265 264 264 266 268 270 273 277 279 281 284 286 288 291 292 290 290 293 294 292 291 292 294 295 295 295 296
259 260 259 255 248 240 234 228 225 223 223 223 224 227 229 231 232 233 232 231 231 230 230 231 231 231 233 235 237 237 238 239 241 242 243 246 248 249 251 253 255 256 256 256 256 256 255 255 256 257 258 259 260 260 260 261 262 263 264 264 264 265 266 267 270 274 277 281 284 286 288 289 289 288 289 291 292 292 292 292 293 295 296 296 296
258 258 258 257 253 245 238 232 227 225 224 224 223 224 226 229 232 233 232 232 232 232 231 231 231 232 233 234 235 237 238 239 240 241 242 244 247 250 253 255 257 258 258 257 257 258 258 259 259 260 260 260 260 260 260 260 260 261 262 264 265 265 266 267 269 272 275 279 282 284 286 287 287 287 287 288 289 290 290 290 291 292 294 295 295
257 257 257 257 256 252 245 238 232 228 226 226 225 224 224 226 229 232 233 233 233 233 234 234 233 233 234 234 235 236 238 240 241 241 242 244 247 250 253 255 256 257 258 258 259 260 261 262 262 261 261 260 260 259 259 259 261 262 263 264 265 266 267 268 270 272 276 279 280 281 282 284 286 287 288 288 288 289 290 291 291 292 292 294 295
257 256 256 255 255 255 251 245 238 233 229 227 227 227 226 226 227 229 232 234 234 234 235 235 235 235 235 235 236 237 239 241 243 243 243 243 244 245 248 251 254 255 257 258 259 260 261 262 262 262 261 260 259 259 259 260 261 263 264 265 266 267 268 269 271 273 275 277 278 279 281 283 285 286 287 288 289 290 291 291 291 291 292 293 294
256 256 255 254 254 254 253 250 245 239 234 230 229 228 229 228 227 227 229 231 233 235 235 235 235 236 236 236 237 239 240 242 243 245 245 244 242 240 241 244 248 251 254 254 255 256 257 259 261 261 260 260 259 259 260 261 262 263 265 266 268 269 270 271 272 272 274 276 279 280 282 284 285 286 286 287 287 288 289 289 289 290 291 292 293
256 256 255 254 253 253 253 252 250 246 240 235 232 230 230 230 230 229 228 229 231 233 235 236 236 236 236 237 238 239 241 242 243 244 245 245 243 240 240 242 245 249 251 250 249 251 253 255 258 259 258 259 260 261 262 263 265 266 267 269 270 272 273 274 274 274 276 279 281 281 282 284 285 286 286 286 286 286 286 287 288 289 290 291 292
257 256 255 255 254 253 252 252 251 249 246 241 237 233 231 231 232 232 231 230 230 230 232 235 236 236 236 236 237 239 240 241 241 242 244 244 243 239 237 240 244 248 250 249 246 246 249 251 254 255 256 257 259 262 263 264 266 267 268 270 272 274 276 277 276 276 278 281 283 283 283 284 285 285 285 285 285 285 286 287 288 290 291 292 293
258 257 255 254 254 254 253 253 252 251 249 246 242 238 234 232 232 233 233 232 231 231 231 232 234 235 236 236 236 237 238 239 240 241 242 244 243 241 237 237 241 245 248 249 248 245 246 248 251 253 254 255 257 259 261 264 266 267 269 271 273 274 275 276 276 276 278 280 282 283 284 284 284 284 284 284 284 285 286 287 289 290 292 293 293
261 259 257 255 254 254 254 254 253 252 250 248 245 243 239 236 234 233 234 233 233 233 232 232 232 233 235 236 236 236 237 237 239 240 241 242 244 245 244 242 242 243 245 247 248 248 247 248 249 251 253 254 256 258 260 263 266 267 269 271 273 274 275 275 275 276 277 279 281 282 283 283 283 283 284 284 285 285 286 288 289 290 291 292 292
262 261 259 257 255 254 254 254 253 252 251 249 246 244 242 240 237 235 234 234 234 234 233 233 233 233 234 234 235 235 235 236 237 239 240 241 242 244 246 246 246 246 246 247 248 249 250 251 251 252 253 255 257 258 260 262 265 267 269 270 272 273 274 274 275 276 277 279 281 282 282 282 283 283 284 284 284 285 286 287 288 289 290 291 292
263 262 261 259 257 255 253 253 252 252 251 250 248 245 243 242 240 238 235 235 235 235 235 234 234 235 235 235 235 235 235 235 236 237 239 241 242 243 245 246 247 248 249 249 249 250 251 252 253 254 255 256 257 259 260 262 263 265 267 268 270 271 272 274 275 276 277 279 280 281 281 282 282 283 283 283 284 284 285 286 287 288 290 291 293
264 264 263 261 260 257 255 253 251 250 250 249 249 247 245 243 241 240 238 236 235 235 236 235 235 235 236 237 237 236 236 236 236 236 238 239 241 242 244 246 247 248 250 251 251 251 253 254 255 256 257 257 259 260 261 262 264 265 266 268 269 269 270 272 273 275 277 278 279 279 280 281 281 282 282 283 283 284 285 286 287 288 290 291 292
266 265 264 263 261 260 258 255 252 250 249 248 248 248 247 245 243 241 240 239 238 237 236 236 236 236 236 237 238 238 238 237 237 237 238 239 240 242 243 245 247 248 250 251 252 253 254 256 257 257 258 259 260 261 262 263 264 265 267 268 269 270 270 271 273 274 276 277 278 278 279 280 281 281 282 282 283 284 284 286 287 288 289 290 291
267 266 264 263 262 261 259 257 255 252 250 249 248 248 248 247 245 243 241 240 239 239 238 237 237 237 237 237 237 238 239 240 239 239 239 239 240 242 243 244 246 247 249 250 252 253 254 256 256 257 258 259 260 261 263 264 265 266 267 269 270 271 272 272 273 274 275 276 277 278 279 279 280 281 281 282 283 284 285 286 287 288 288 289 290
268 267 265 264 262 261 259 258 257 255 253 251 249 248 248 248 247 246 244 241 240 240 240 239 239 238 238 238 238 238 239 240 241 241 241 241 241 241 243 244 246 247 248 249 251 252 254 255 256 257 258 259 260 261 263 264 265 266 267 268 269 270 271 272 273 274 275 275 276 277 278 278 279 280 281 282 283 284 284 285 286 287 288 289 290
271 269 267 265 264 262 260 258 257 256 255 253 251 249 248 248 248 247 246 244 242 241 241 241 241 240 240 240 239 239 239 240 241 242 243 243 243 243 243 244 245 247 248 250 251 252 253 254 256 257 258 259 260 261 262 263 264 265 266 267 267 268 270 271 271 272 273 274 274 275 276 277 278 279 280 281 281 282 283 284 285 286 287 289 290
273 271 270 268 266 264 262 260 258 257 255 254 252 251 249 248 248 247 246 246 244 243 241 241 242 242 242 242 241 241 241 241 241 242 242 243 244 244 244 244 245 246 248 249 251 252 253 254 255 256 257 258 259 260 261 262 263 264 265 266 266 267 268 269 270 271 271 272 273 273 274 275 276 277 278 279 280 281 282 283 285 286 287 289 290
273 272 270 269 268 266 264 262 260 258 257 255 254 252 251 249 249 248 247 246 245 245 243 242 242 243 243 244 243 243 243 242 242 242 243 243 244 245 245 245 246 246 247 248 250 251 252 253 254 255 256 257 258 259 260 261 262 263 264 265 266 266 267 268 269 270 270 271 271 272 273 274 275 276 277 278 279 281 282 283 285 286 288 290 291
276 274 271 269 267 267 266 265 263 261 259 257 256 254 252 251 249 249 248 247 246 245 245 244 243 243 244 244 245 245 244 244 244 244 244 244 244 245 245 246 246 247 247 248 249 250 251 253 254 255 256 257 258 258 259 260 261 262 262 263 264 265 266 267 268 269 269 270 271 272 273 274 275 276 277 279 280 281 283 284 286 287 289 290 291
277 276 274 272 269 267 265 265 264 263 262 260 258 256 255 253 251 250 249 248 247 246 245 245 244 244 244 244 245 246 246 246 245 245 245 245 245 246 246 246 247 247 248 248 249 250 251 252 253 254 255 256 257 258 259 259 260 261 262 263 264 265 266 266 267 268 269 270 271 272 273 274 276 277 278 280 281 282 284 285 286 287 288 289 290
278 277 276 275 273 271 268 265 263 263 263 262 260 259 257 255 254 252 251 250 248 247 246 245 245 244 244 244 245 246 246 247 247 246 246 245 245 246 247 247 248 248 249 249 250 250 251 252 253 253 254 255 256 257 258 259 260 261 262 263 264 265 266 267 268 269 270 271 272 273 274 276 277 278 279 280 281 283 284 285 286 287 288 289 290
282 280 278 276 275 274 272 269 266 263 262 261 261 260 259 257 256 254 253 251 250 249 248 247 246 245 245 245 245 245 246 247 248 248 248 247 246 246 246 247 248 249 249 250 251 251 252 252 253 254 255 255 256 257 258 259 260 261 262 263 264 265 266 267 268 269 270 271 273 274 275 276 277 278 279 280 281 282 283 284 285 286 287 288 289
286 284 282 280 278 276 274 273 271 268 265 262 260 260 259 259 258 256 254 253 252 251 250 249 247 246 245 245 245 245 246 247 248 248 249 248 248 247 247 247 248 248 249 250 251 252 253 253 254 255 255 256 257 258 259 259 260 261 262 263 264 265 266 267 268 269 270 271 272 273 275 276 277 278 278 280 281 281 282 283 284 285 286 287 288
288 286 285 283 281 279 277 275 273 272 270 267 263 261 259 258 258 257 256 255 254 253 252 251 250 248 247 246 245 245 245 246 247 248 249 249 249 249 249 248 248 249 249 250 251 252 252 253 254 255 256 257 257 258 259 260 261 262 263 264 265 265 266 267 268 269 270 271 272 273 273 274 275 276 277 278 279 280 281 282 283 284 285 286 286
290 288 287 286 284 282 280 278 276 274 272 270 268 265 262 260 258 257 257 256 256 255 254 252 251 250 249 248 247 246 246 246 247 248 249 249 250 250 250 250 250 250 250 251 251 252 253 253 254 255 256 256 257 258 259 260 261 262 263 263 264 265 266 267 268 268 269 270 271 272 272 273 274 275 276 277 278 279 280 281 282 283 284 284 285
294 291 289 287 286 285 283 281 279 277 275 273 271 268 266 263 261 259 257 256 256 256 255 254 253 252 251 250 249 249 248 247 247 247 248 249 249 250 250 250 250 251 251 252 252 253 253 254 254 255 256 256 257 258 258 259 260 261 262 263 264 265 265 266 267 268 269 269 270 271 272 273 274 275 276 277 278 278 279 280 281 282 283 285 286
301 297 294 290 288 286 284 283 282 280 278 276 274 271 269 266 264 262 260 258 256 255 255 255 255 254 253 252 251 250 250 249 248 248 248 249 249 250 250 250 251 251 251 252 253 253 254 255 255 256 256 257 258 258 259 259 260 261 262 262 263 264 265 266 267 268 269 269 270 271 272 273 274 275 276 277 278 279 280 281 282 283 284 285 286
307 304 300 296 292 289 286 284 283 282 281 280 278 275 273 270 267 264 262 261 259 257 256 255 254 254 254 254 253 252 251 250 250 250 249 249 249 249 250 250 251 251 251 252 252 253 254 254 255 256 257 257 258 259 260 261 261 262 263 263 264 265 265 266 267 268 269 270 271 272 272 273 274 275 277 278 279 280 281 282 283 284 285 287 288
311 308 305 302 298 294 291 288 285 284 282 282 281 279 277 274 271 268 264 262 261 259 258 256 255 254 254 254 254 253 253 252 251 251 251 250 250 250 250 250 250 251 251 252 252 253 253 254 255 255 256 257 258 259 260 261 261 262 263 264 265 266 267 267 268 269 270 271 272 273 274 275 276 277 278 279 280 281 282 283 284 285 286 287 288
315 313 310 306 303 299 296 292 289 287 285 283 282 282 280 278 276 273 269 265 262 260 260 259 257 255 254 253 253 253 253 253 253 252 252 252 251 251 251 251 251 251 252 252 252 253 254 254 255 256 256 257 258 258 259 260 261 262 263 264 265 266 267 268 269 270 271 272 273 274 275 276 277 278 279 280 280 281 282 283 284 285 286 287 288
319 317 315 311 307 303 300 296 294 291 288 286 284 283 282 281 280 277 274 271 267 264 261 260 259 257 256 254 254 253 253 253 253 253 253 253 253 253 253 253 253 253 253 253 253 253 254 255 255 256 257 257 258 259 259 260 261 262 263 264 264 265 266 267 268 269 270 271 272 273 274 275 276 277 278 279 280 281 282 283 284 285 286 287 288
323 321 319 316 312 308 305 301 298 295 293 290 288 286 284 283 282 280 279 276 272 268 265 263 261 260 258 256 255 255 254 253 253 253 253 254 254 254 254 254 254 254 254 254 255 255 255 255 256 256 257 258 258 259 260 261 262 262 263 264 265 266 266 267 268 269 270 271 272 273 274 275 276 277 278 279 280 281 282 283 284 285 286 287 288
Height
10586 10586 10586 10585 10584 10584 10586 10590 10595 10599 10603 10607 10611 10614 10616 10618 10621 10624 10625 10626 10629 10631 10634 10637 10638 10640 10642 10642 10641 10642 10643 10644 10644 10645 10645 10646 10647 10648 10648 10648 10648 10647 10647 10645 10643 10641 10641 10641 10642 10643 10643 10644 10646 10647 10648 10649 10649 10649 10649 10649 10648 10647 10646 10645 10644 10643 10643 10642 10642 10641 10641 10641 10641 10641 10641 10641 10642 10642 10643 10643 10643 10643 10643 10643 10643
10578 10578 10578 10578 10577 10577 10579 10583 10588 10592 10597 10601 10605 10608 10611 10613 10616 10618 10620 10622 10624 10627 10629 10632 10633 10635 10637 10637 10638 10638 10639 10640 10641 10642 10643 10643 10644 10644 10644 10644 10644 10643 10642 10641 10639 10638 10638 10638 10638 10638 10639 10641 10642 10643 10643 10644 10644 10644 10645 10644 10643 10642 10641 10640 10639 10638 10638 10638 10637 10637 10637 10637 10637 10637 10637 10638 10638 10639 10639 10639 10639 10640 10640 10640 10640
10571 10571 10572 10572 10572 10572 10574 10577 10581 10586 10591 10596 10600 10603 10605 10608 10610 10613 10615 10617 10620 10622 10625 10627 10628 10630 10632 10633 10634 10634 10635 10636 10637 10638 10640 10639 10639 10639 10639 10640 10640 10639 10638 10637 10636 10635 10635 10635 10635 10635 10635 10637 10638 10638 10638 10639 10639 10640 10640 10639 10637 10637 10636 10635 10634 10634 10633 10633 10633 10633 10632 10632 10632 10633 10634 10634 10635 10635 10636 10636 10636 10636 10636 10636 10636
10566 10565 10565 10566 10566 10567 10568 10572 10576 10581 10586 10591 10594 10597 10600 10603 10605 10607 10610 10613 10616 10618 10620 10622 10623 10625 10626 10628 10629 10630 10631 10631 10632 10633 10634 10634 10635 10635 10635 10636 10636 10635 10634 10633 10633 10633 10632 10632 10631 10631 10632 10633 10634 10634 10634 10634 10635 10635 10635 10634 10633 10632 10632 10631 10630 10630 10629 10629 10629 10628 10628 10628 10629 10629 10630 10630 10631 10631 10632 10632 10632 10632 10632 10632 10632
10560 10560 10560 10561 10561 10562 10564 10567 10571 10576 10582 10586 10589 10593 10596 10598 10600 10602 10605 10608 10611 10613 10615 10616 10618 10619 10621 10623 10624 10625 10626 10626 10627 10627 10628 10629 10630 10631 10632 10632 10632 10631 10630 10630 10630 10629 10629 10628 10628 10628 10629 10629 10630 10630 10630 10631 10631 10631 10630 10630 10629 10629 10628 10627 10626 10626 10626 10625 10625 10625 10624 10624 10625 10625 10626 10627 10627 10628 10628 10628 10628 10628 10628 10628 10627
10556 10555 10555 10555 10556 10558 10559 10562 10567 10572 10577 10581 10585 10589 10592 10593 10595 10598 10600 10603 10605 10607 10609 10611 10612 10614 10615 10617 10619 10620 10621 10621 10621 10622 10623 10624 10625 10626 10627 10628 10628 10627 10627 10627 10626 10626 10625 10624 10624 10624 10625 10626 10626 10626 10627 10627 10627 10627 10626 10626 10625 10625 10624 10623 10623 10622 10622 10622 10622 10622 10622 10622 10622 10622 10623 10623 10624 10624 10624 10624 10624 10624 10623 10623 10623
10551 10550 10550 10550 10551 10553 10555 10558 10562 10567 10573 10577 10580 10584 10587 10589 10592 10594 10594 10596 10599 10602 10603 10605 10607 10609 10610 10612 10614 10615 10616 10616 10617 10618 10619 10620 10621 10621 10623 10624 10624 10624 10624 10623 10623 10622 10621 10620 10620 10621 10622 10622 10622 10623 10623 10623 10623 10623 10624 10623 10623 10622 10621 10621 10620 10619 10619 10619 10619 10619 10619 10619 10619 10619 10620 10620 10620 10620 10620 10620 10620 10620 10620 10620 10619
10547 10546 10546 10546 10547 10549 10551 10554 10557 10563 10568 10572 10576 10580 10583 10585 10588 10588 10588 10590 10594 10596 10598 10600 10602 10604 10605 10607 10609 10610 10611 10612 10612 10613 10614 10615 10616 10616 10617 10618 10619 10620 10619 10619 10619 10619 10617 10616 10617 10618 10618 10618 10619 10619 10619 10620 10620 10621 10621 10621 10621 10620 10619 10618 10617 10616 10616 10616 10616 10616 10616 10617 10617 10617 10617 10617 10617 10617 10616 10616 10616 10616 10616 10616 10615
10542 10542 10542 10542 10542 10544 10546 10549 10553 10558 10562 10567 10572 10575 10578 10579 10581 10582 10582 10585 10588 10591 10592 10594 10596 10598 10599 10601 10604 10605 10606 10607 10607 10608 10608 10609 10610 10611 10612 10613 10614 10615 10615 10615 10615 10615 10614 10613 10614 10614 10614 10615 10615 10616 10616 10616 10616 10617 10619 10619 10619 10619 10617 10615 10614 10614 10613 10612 10613 10613 10613 10614 10614 10614 10614 10613 10613 10613 10613 10612 10612 10612 10612 10611 10611
10538 10537 10537 10538 10538 10540 10542 10545 10549 10552 10557 10561 10565 10568 10570 10571 10573 10575 10576 10579 10581 10584 10586 10588 10590 10592 10594 10596 10598 10599 10601 10602 10602 10602 10603 10604 10605 10606 10606 10607 10608 10609 10610 10610 10611 10611 10611 10610 10610 10611 10611 10611 10612 10612 10612 10612 10612 10613 10615 10616 10616 10616 10614 10612 10611 10611 10610 10609 10609 10610 10610 10610 10610 10610 10610 10610 10610 10609 10609 10608 10608 10608 10607 10607 10607
10533 10533 10533 10534 10534 10536 10538 10541 10544 10547 10551 10554 10558 10560 10561 10563 10565 10567 10570 10572 10574 10577 10580 10582 10584 10586 10588 10590 10592 10593 10595 10596 10596 10597 10597 10598 10599 10600 10601 10602 10602 10603 10604 10605 10606 10607 10607 10607 10607 10607 10607 10608 10609 10609 10609 10610 10610 10610 10611 10612 10612 10611 10610 10608 10607 10607 10606 10606 10606 10606 10606 10607 10607 10607 10607 10606 10606 10605 10605 10604 10604 10603 10603 10602 10603
10528 10528 10528 10529 10530 10532 10534 10536 10539 10542 10545 10548 10550 10552 10554 10556 10558 10561 10564 10566 10568 10571 10573 10575 10577 10580 10582 10584 10586 10587 10588 10590 10590 10591 10592 10593 10594 10594 10595 10596 10597 10597 10598 10599 10601 10602 10602 10603 10603 10603 10603 10604 10605 10605 10606 10607 10607 10607 10607 10608 10608 10607 10606 10604 10603 10603 10603 10602 10602 10603 10602 10602 10603 10602 10602 10602 10602 10601 10600 10599 10599 10598 10598 10597 10597
10523 10523 10523 10524 10526 10527 10530 10532 10535 10537 10540 10542 10544 10545 10547 10550 10552 10555 10557 10559 10561 10564 10567 10569 10571 10574 10576 10578 10579 10581 10582 10583 10584 10585 10586 10587 10588 10589 10589 10590 10591 10592 10592 10593 10594 10595 10597 10597 10598 10598 10599 10599 10600 10601 10602 10602 10603 10603 10602 10603 10603 10602 10601 10600 10599 10598 10598 10598 10598 10599 10598 10598 10598 10597 10597 10597 10596 10596 10595 10594 10593 10592 10591 10591 10590
10517 10518 10519 10519 10520 10522 10525 10527 10529 10532 10535 10536 10538 10539 10541 10543 10547 10549 10551 10553 10555 10557 10560 10562 10565 10568 10570 10572 10573 10574 10576 10576 10577 10578 10579 10580 10581 10582 10583 10584 10586 10586 10587 10587 10588 10589 10590 10591 10592 10593 10594 10594 10595 10595 10596 10596 10597 10597 10597 10597 10597 10597 10596 10595 10594 10594 10593 10592 10593 10594 10593 10593 10593 10592 10591 10591 10590 10590 10589 10588 10587 10586 10585 10584 10583
10511 10512 10514 10514 10515 10517 10519 10522 10524 10526 10529 10530 10532 10533 10535 10537 10541 10543 10545 10547 10549 10551 10553 10556 10558 10561 10564 10565 10566 10567 10569 10570 10571 10571 10572 10573 10574 10576 10577 10578 10579 10580 10581 10581 10582 10583 10584 10585 10586 10587 10588 10588 10589 10589 10590 10590 10590 10590 10591 10591 10591 10591 10591 10589 10589 10590 10588 10586 10587 10588 10588 10587 10587 10586 10586 10585 10585 10584 10583 10582 10581 10579 10578 10577 10576
10505 10506 10508 10509 10510 10511 10513 10516 10518 10520 10522 10524 10526 10527 10529 10531 10534 10536 10539 10541 10543 10545 10547 10549 10552 10554 10555 10557 10559 10560 10562 10563 10564 10565 10566 10567 10568 10569 10570 10572 10573 10574 10575 10575 10576 10577 10578 10579 10579 10580 10581 10582 10582 10583 10583 10583 10583 10584 10584 10585 10585 10585 10585 10584 10583 10584 10583 10581 10580 10581 10582 10581 10580 10580 10580 10579 10579 10578 10577 10576 10575 10573 10571 10570 10569
10498 10499 10501 10503 10504 10505 10507 10510 10512 10514 10516 10517 10519 10520 10522 10525 10527 10530 10532 10534 10536 10539 10540 10542 10545 10546 10547 10549 10552 10553 10554 10555 10556 10558 10559 10560 10561 10562 10564 10565 10566 10567 10568 10569 10569 10570 10571 10572 10573 10574 10575 10575 10576 10576 10576 10576 10576 10577 10578 10578 10578 10579 10579 10578 10577 10577 10577 10575 10574 10574 10574 10574 10574 10574 10573 10573 10572 10571 10570 10568 10567 10565 10564 10563 10562
10491 10492 10494 10496 10498 10499 10501 10503 10505 10507 10509 10511 10512 10513 10515 10517 10520 10523 10526 10527 10529 10531 10533 10535 10537 10539 10540 10542 10544 10546 10547 10548 10549 10550 10552 10553 10554 10556 10557 10558 10560 10561 10561 10562 10563 10563 10564 10565 10566 10567 10568 10568 10569 10569 10569 10569 10569 10570 10571 10571 10571 10572 10572 10571 10571 10571 10571 10569 10567 10567 10567 10567 10567 10566 10565 10566 10565 10563 10561 10559 10559 10558 10556 10554 10553
10484 10485 10486 10488 10490 10492 10494 10496 10498 10500 10502 10504 10505 10507 10508 10510 10512 10515 10518 10520 10522 10523 10525 10528 10530 10532 10533 10535 10537 10539 10540 10541 10542 10544 10545 10546 10548 10549 10550 10551 10552 10553 10554 10555 10555 10556 10557 10558 10558 10559 10560 10561 10561 10562 10562 10562 10562 10563 10563 10564 10564 10564 10564 10564 10564 10565 10564 10562 10560 10560 10559 10560 10560 10558 10557 10558 10558 10555 10552 10550 10549 10550 10548 10545 10544
10477 10478 10479 10480 10482 10484 10486 10488 10490 10492 10495 10496 10498 10499 10501 10502 10504 10507 10510 10512 10514 10516 10518 10520 10522 10524 10525 10527 10529 10531 10532 10534 10536 10537 10539 10540 10541 10541 10542 10543 10544 10545 10546 10546 10547 10548 10549 10550 10550 10551 10552 10553 10554 10554 10554 10555 10555 10555 10555 10556 10556 10557 10557 10557 10557 10557 10557 10555 10554 10553 10552 10552 10553 10551 10549 10549 10549 10548 10546 10542 10540 10540 10539 10537 10535
10469 10470 10471 10472 10474 10475 10477 10480 10481 10483 10486 10488 10490 10492 10494 10495 10496 10498 10501 10504 10506 10508 10510 10512 10515 10517 10518 10520 10521 10523 10525 10526 10528 10530 10532 10533 10534 10534 10535 10535 10536 10536 10536 10537 10539 10540 10541 10541 10541 10543 10543 10544 10545 10545 10546 10546 10546 10547 10547 10548 10548 10548 10548 10549 10549 10548 10549 10548 10547 10546 10545 10544 10544 10543 10542 10541 10540 10539 10538 10536 10533 10532 10530 10529 10527
10460 10461 10463 10464 10465 10467 10469 10471 10473 10474 10476 10478 10481 10483 10485 10487 10489 10490 10492 10494 10497 10499 10502 10504 10507 10509 10511 10512 10513 10514 10516 10518 10520 10522 10525 10526 10526 10527 10528 10528 10529 10528 10528 10529 10530 10531 10531 10531 10531 10533 10535 10535 10535 10536 10537 10537 10537 10538 10539 10539 10540 10540 10539 10540 10540 10540 10540 10540 10539 10538 10537 10536 10535 10534 10533 10532 10530 10529 10529 10527 10525 10523 10521 10519 10517
10451 10452 10453 10455 10456 10458 10459 10461 10463 10465 10466 10468 10471 10474 10476 10479 10481 10482 10484 10485 10488 10490 10492 10495 10498 10501 10502 10504 10505 10506 10509 10510 10511 10514 10516 10517 10518 10519 10520 10521 10521 10521 10521 10522 10523 10523 10522 10522 10521 10523 10525 10526 10526 10527 10527 10528 10528 10529 10530 10530 10530 10530 10530 10530 10531 10531 10531 10531 10530 10529 10528 10527 10526 10525 10523 10522 10521 10519 10518 10517 10515 10514 10512 10510 10508
10441 10442 10443 10444 10446 10448 10449 10451 10452 10454 10456 10458 10461 10464 10466 10469 10472 10474 10476 10477 10479 10481 10483 10486 10489 10492 10494 10496 10497 10499 10501 10502 10503 10504 10506 10508 10509 10510 10511 10512 10513 10513 10513 10514 10515 10515 10514 10513 10513 10514 10515 10516 10516 10517 10517 10518 10519 10520 10521 10521 10521 10521 10521 10521 10521 10521 10521 10521 10520 10519 10518 10517 10516 10515 10514 10513 10511 10510 10508 10507 10505 10504 10502 10500 10498
10432 10432 10433 10434 10435 10437 10439 10440 10442 10443 10446 10448 10451 10453 10456 10458 10461 10464 10466 10468 10470 10472 10474 10476 10479 10482 10485 10487 10489 10491 10493 10494 10495 10495 10496 10498 10499 10500 10501 10502 10504 10505 10505 10506 10507 10507 10506 10506 10506 10506 10506 10505 10505 10506 10506 10506 10507 10508 10509 10510 10510 10510 10509 10509 10509 10509 10510 10510 10509 10508 10508 10507 10506 10505 10504 10503 10502 10500 10499 10497 10496 10494 10492 10490 10488
10422 10423 10424 10424 10425 10426 10428 10430 10431 10432 10434 10437 10440 10442 10445 10447 10450 10453 10455 10458 10461 10463 10465 10467 10469 10472 10475 10477 10480 10482 10484 10485 10486 10486 10487 10488 10489 10490 10491 10493 10494 10495 10496 10497 10498 10498 10498 10498 10498 10497 10497 10496 10496 10495 10495 10494 10495 10496 10497 10497 10498 10499 10499 10498 10498 10498 10498 10498 10498 10498 10497 10497 10496 10495 10494 10493 10491 10490 10488 10486 10484 10483 10481 10479 10476
10410 10412 10413 10414 10415 10416 10417 10418 10420 10421 10423 10425 10428 10430 10433 10436 10438 10441 10444 10447 10450 10453 10456 10458 10459 10462 10464 10467 10470 10472 10475 10476 10477 10478 10478 10478 10479 10480 10481 10483 10484 10485 10486 10486 10487 10488 10488 10489 10489 10488 10488 10487 10487 10486 10485 10485 10485 10486 10486 10487 10488 10489 10489 10489 10489 10488 10488 10488 10488 10488 10488 10487 10487 10486 10484 10483 10481 10478 10476 10474 10472 10470 10469 10467 10465
10396 10399 10401 10403 10405 10405 10406 10407 10408 10409 10411 10414 10416 10418 10421 10424 10426 10429 10432 10435 10438 10441 10445 10447 10450 10452 10454 10456 10459 10462 10465 10466 10467 10468 10469 10469 10469 10470 10472 10473 10474 10475 10475 10475 10475 10477 10478 10479 10479 10479 10478 10478 10478 10478 10477 10476 10476 10476 10477 10478 10478 10479 10479 10480 10479 10479 10478 10478 10478 10478 10477 10477 10476 10475 10473 10471 10469 10467 10465 10462 10461 10459 10458 10457 10455
10382 10384 10387 10390 10392 10393 10394 10394 10395 10396 10399 10401 10403 10405 10408 10411 10413 10416 10419 10422 10425 10429 10433 10436 10439 10441 10444 10446 10449 10452 10454 10455 10457 10458 10459 10460 10461 10461 10462 10463 10464 10464 10464 10464 10465 10465 10466 10467 10469 10469 10470 10469 10469 10469 10469 10469 10468 10468 10468 10469 10470 10469 10468 10468 10468 10468 10468 10467 10467 10467 10466 10465 10465 10463 10462 10460 10458 10456 10454 10452 10450 10448 10446 10445 10443
10369 10370 10372 10375 10377 10379 10380 10381 10382 10383 10385 10387 10389 10392 10395 10397 10400 10403 10406 10409 10412 10416 10420 10424 10427 10430 10433 10436 10439 10441 10443 10445 10446 10448 10449 10450 10451 10452 10453 10453 10454 10454 10454 10455 10455 10455 10455 10456 10458 10459 10460 10461 10460 10460 10461 10461 10460 10460 10460 10460 10461 10461 10459 10458 10457 10456 10456 10456 10456 10455 10454 10453 10453 10452 10450 10449 10447 10445 10443 10441 10439 10437 10435 10432 10430
10357 10357 10359 10360 10362 10363 10365 10367 10368 10370 10372 10374 10376 10378 10381 10384 10386 10389 10393 10397 10400 10404 10408 10411 10415 10418 10422 10424 10427 10430 10432 10434 10436 10437 10438 10440 10441 10442 10443 10443 10444 10444 10444 10444 10445 10445 10445 10446 10447 10448 10449 10450 10450 10451 10451 10451 10451 10450 10450 10450 10452 10452 10451 10450 10448 10446 10446 10446 10445 10444 10443 10442 10442 10441 10439 10438 10436 10434 10432 10430 10428 10426 10423 10421 10419
10345 10345 10347 10347 10348 10349 10351 10352 10354 10356 10358 10360 10363 10365 10368 10370 10372 10375 10379 10384 10388 10391 10395 10398 10402 10405 10409 10412 10415 10418 10421 10423 10425 10427 10428 10430 10431 10432 10433 10433 10433 10433 10433 10433 10434 10434 10435 10436 10437 10438 10438 10439 10439 10440 10440 10441 10441 10441 10440 10440 10440 10440 10441 10440 10439 10437 10436 10436 10435 10433 10431 10430 10430 10429 10428 10426 10424 10422 10420 10418 10416 10414 10412 10410 10408
10334 10335 10335 10336 10336 10337 10338 10339 10340 10342 10345 10347 10350 10352 10355 10357 10359 10362 10366 10371 10375 10379 10382 10385 10388 10392 10396 10399 10402 10405 10408 10411 10413 10415 10417 10419 10420 10422 10423 10423 10422 10422 10422 10423 10423 10423 10424 10425 10427 10428 10428 10428 10428 10428 10429 10429 10430 10430 10430 10429 10428 10428 10428 10428 10427 10426 10426 10425 10424 10422 10420 10419 10418 10416 10415 10413 10411 10410 10408 10406 10405 10403 10401 10398 10396
10325 10325 10325 10325 10326 10326 10326 10327 10328 10330 10332 10334 10337 10339 10342 10344 10346 10349 10352 10357 10362 10365 10369 10372 10375 10378 10382 10385 10389 10392 10395 10398 10400 10403 10405 10407 10409 10410 10412 10412 10411 10411 10411 10412 10412 10413 10413 10414 10415 10416 10417 10418 10418 10418 10418 10418 10419 10419 10419 10418 10417 10417 10416 10415 10415 10415 10414 10414 10413 10411 10410 10408 10406 10405 10403 10401 10399 10398 10396 10394 10392 10390 10388 10386 10383
10316 10316 10316 10315 10315 10316 10316 10316 10317 10318 10320 10322 10324 10327 10329 10332 10334 10336 10339 10343 10348 10352 10355 10358 10361 10365 10368 10371 10375 10379 10382 10384 10387 10389 10392 10394 10396 10398 10400 10401 10401 10401 10401 10401 10401 10402 10402 10403 10404 10404 10405 10407 10407 10407 10407 10407 10408 10408 10408 10408 10407 10406 10406 10405 10405 10404 10404 10403 10402 10401 10399 10398 10396 10394 10392 10390 10389 10387 10385 10383 10380 10378 10376 10374 10372
10308 10307 10306 10306 10305 10306 10306 10306 10307 10308 10309 10310 10312 10315 10317 10319 10322 10324 10327 10330 10334 10338 10342 10345 10348 10351 10354 10358 10361 10364 10368 10370 10373 10376 10378 10381 10383 10385 10387 10388 10389 10390 10390 10390 10390 10391 10391 10392 10392 10393 10393 10394 10395 10396 10396 10397 10397 10397 10397 10396 10396 10396 10395 10395 10394 10394 10393 10393 10392 10391 10389 10387 10385 10384 10382 10380 10378 10376 10374 10372 10370 10367 10365 10363 10361
10300 10299 10298 10297 10296 10296 10296 10296 10297 10297 10298 10300 10301 10303 10305 10308 10310 10312 10315 10318 10321 10325 10329 10332 10335 10337 10340 10343 10347 10350 10353 10356 10359 10361 10364 10367 10369 10371 10373 10375 10376 10377 10378 10378 10379 10379 10380 10380 10380 10381 10382 10382 10383 10384 10385 10385 10385 10385 10385 10385 10384 10384 10384 10383 10383 10382 10382 10381 10380 10379 10378 10377 10375 10373 10371 10370 10368 10365 10363 10361 10359 10356 10354 10351 10348
10291 10290 10289 10288 10288 10287 10287 10287 10287 10287 10288 10289 10291 10292 10294 10296 10298 10300 10302 10305 10308 10311 10315 10319 10321 10324 10326 10329 10332 10335 10338 10341 10344 10347 10349 10352 10355 10358 10360 10361 10363 10364 10365 10366 10367 10368 10368 10368 10368 10369 10369 10370 10370 10371 10372 10373 10373 10373 10373 10373 10372 10372 10372 10371 10371 10370 10369 10368 10368 10367 10366 10364 10363 10361 10360 10358 10356 10353 10351 10349 10347 10344 10341 10338 10335
10282 10281 10280 10279 10279 10279 10278 10278 10278 10278 10278 10279 10280 10282 10283 10285 10286 10288 10290 10292 10295 10298 10301 10304 10308 10310 10313 10315 10317 10320 10323 10326 10329 10332 10335 10338 10341 10344 10346 10347 10349 10351 10352 10353 10355 10356 10356 10357 10357 10357 10357 10358 10358 10359 10359 10360 10360 10360 10360 10360 10360 10360 10359 10359 10358 10358 10357 10356 10355 10354 10353 10351 10350 10348 10347 10345 10343 10341 10339 10336 10334 10332 10329 10326 10324
10274 10272 10271 10270 10270 10269 10269 10269 10269 10269 10269 10269 10270 10272 10273 10274 10275 10277 10278 10280 10283 10285 10288 10291 10294 10297 10300 10301 10303 10305 10308 10311 10314 10317 10321 10324 10327 10330 10332 10333 10335 10337 10339 10340 10342 10343 10344 10344 10345 10345 10346 10346 10347 10347 10347 10348 10348 10348 10348 10348 10348 10348 10347 10346 10346 10345 10344 10343 10342 10341 10340 10339 10337 10336 10334 10332 10330 10328 10327 10325 10323 10320 10318 10316 10313
10266 10264 10263 10262 10262 10261 10260 10260 10260 10260 10260 10260 10260 10261 10262 10263 10264 10265 10267 10268 10270 10272 10275 10278 10281 10284 10286 10288 10290 10292 10294 10296 10299 10302 10306 10309 10313 10315 10318 10319 10321 10323 10325 10327 10328 10330 10331 10332 10333 10333 10334 10335 10335 10336 10336 10336 10336 10336 10336 10336 10336 10336 10335 10335 10334 10333 10332 10331 10330 10329 10328 10326 10325 10323 10321 10320 10318 10317 10315 10313 10311 10309 10307 10304 10302
10258 10256 10255 10254 10253 10252 10251 10251 10250 10250 10251 10251 10251 10252 10252 10252 10252 10254 10255 10257 10258 10260 10263 10265 10268 10271 10273 10276 10278 10279 10280 10282 10285 10288 10291 10294 10297 10300 10303 10305 10307 10309 10311 10313 10315 10316 10317 10318 10320 10321 10322 10323 10323 10324 10324 10324 10324 10324 10324 10324 10324 10324 10323 10323 10322 10321 10320 10319 10318 10317 10316 10314 10313 10311 10310 10308 10307 10305 10304 10302 10300 10298 10296 10293 10291
10251 10249 10247 10246 10245 10244 10243 10242 10241 10241 10241 10241 10242 10242 10242 10241 10241 10242 10244 10245 10247 10249 10251 10253 10255 10258 10260 10263 10265 10267 10268 10269 10271 10274 10277 10280 10283 10286 10288 10291 10293 10296 10298 10299 10301 10302 10304 10305 10306 10308 10309 10310 10311 10311 10311 10312 10312 10312 10312 10312 10312 10312 10311 10310 10310 10309 10308 10308 10307 10306 10304 10303 10302 10300 10298 10297 10296 10294 10292 10291 10289 10287 10285 10283 10280
10245 10242 10240 10238 10237 10235 10234 10233 10232 10231 10231 10231 10231 10232 10233 10232 10231 10232 10233 10234 10236 10237 10239 10241 10243 10245 10248 10250 10252 10254 10256 10257 10259 10261 10264 10267 10269 10272 10274 10277 10279 10281 10284 10286 10287 10289 10290 10292 10293 10294 10296 10297 10297 10298 10299 10299 10299 10299 10300 10300 10300 10299 10299 10298 10298 10297 10297 10296 10295 10294 10293 10292 10290 10289 10287 10286 10285 10284 10282 10280 10278 10276 10275 10273 10270
10238 10236 10234 10232 10229 10227 10225 10224 10223 10222 10222 10221 10221 10222 10223 10223 10222 10222 10223 10224 10225 10226 10227 10229 10231 10233 10235 10238 10240 10242 10244 10245 10247 10248 10251 10253 10256 10258 10261 10263 10265 10267 10269 10271 10273 10275 10277 10278 10280 10281 10282 10283 10284 10285 10285 10286 10286 10287 10287 10287 10287 10287 10286 10286 10286 10285 10285 10284 10284 10283 10282 10281 10280 10278 10277 10276 10274 10273 10271 10269 10267 10265 10264 10262 10259
10232 10229 10227 10225 10223 10220 10218 10216 10214 10213 10212 10212 10212 10212 10212 10213 10213 10213 10214 10215 10215 10215 10216 10217 10219 10221 10223 10225 10227 10229 10231 10233 10235 10236 10238 10240 10242 10245 10247 10249 10251 10254 10255 10258 10260 10261 10263 10265 10266 10267 10268 10269 10270 10271 10272 10272 10273 10274 10274 10274 10274 10273 10273 10273 10273 10273 10273 10272 10272 10271 10270 10269 10268 10267 10266 10264 10263 10262 10260 10258 10256 10254 10252 10250 10248
10226 10223 10221 10218 10215 10213 10211 10209 10207 10206 10204 10203 10202 10202 10203 10203 10203 10203 10204 10205 10205 10205 10206 10207 10208 10209 10210 10212 10215 10217 10219 10221 10222 10224 10225 10227 10229 10231 10234 10236 10238 10240 10242 10244 10246 10248 10250 10251 10252 10253 10254 10255 10256 10257 10258 10258 10259 10260 10260 10260 10260 10260 10260 10260 10260 10260 10260 10259 10259 10259 10258 10257 10256 10255 10254 10252 10251 10250 10248 10246 10244 10242 10239 10237 10235
10220 10218 10215 10212 10209 10206 10203 10201 10200 10199 10197 10195 10194 10194 10194 10193 10193 10194 10195 10196 10196 10196 10196 10197 10198 10199 10199 10200 10202 10204 10206 10208 10210 10212 10213 10215 10217 10219 10221 10223 10225 10226 10228 10230 10232 10234 10236 10237 10238 10240 10241 10242 10242 10243 10244 10245 10246 10246 10246 10246 10246 10247 10247 10247 10246 10246 10246 10246 10246 10246 10245 10244 10244 10243 10241 10240 10239 10237 10235 10233 10231 10229 10227 10224 10222
10214 10212 10209 10206 10203 10200 10197 10194 10192 10191 10190 10188 10187 10186 10185 10184 10184 10184 10186 10187 10187 10187 10187 10187 10188 10189 10189 10190 10190 10192 10194 10196 10198 10200 10201 10203 10205 10206 10208 10210 10211 10213 10215 10217 10219 10221 10222 10223 10225 10226 10227 10228 10229 10230 10231 10232 10233 10233 10233 10234 10234 10234 10234 10234 10233 10233 10233 10233 10232 10232 10232 10231 10230 10230 10228 10227 10226 10224 10222 10220 10218 10216 10214 10212 10209
10209 10206 10203 10201 10198 10195 10191 10188 10186 10184 10183 10182 10180 10179 10178 10177 10175 10175 10176 10178 10178 10178 10178 10178 10178 10178 10179 10180 10180 10181 10183 10184 10186 10187 10189 10191 10192 10194 10195 10197 10199 10200 10202 10204 10206 10208 10209 10211 10212 10213 10214 10215 10216 10217 10218 10219 10220 10220 10221 10221 10221 10221 10221 10221 10221 10221 10221 10220 10220 10220 10219 10218 10218 10217 10216 10215 10213 10212 10210 10208 10206 10204 10202 10200 10198
10204 10201 10198 10195 10192 10189 10186 10183 10180 10178 10177 10175 10173 10172 10171 10170 10168 10167 10167 10168 10169 10169 10169 10169 10169 10169 10170 10171 10171 10171 10172 10173 10175 10176 10177 10179 10180 10182 10183 10185 10186 10188 10190 10192 10193 10195 10196 10198 10199 10200 10202 10203 10203 10204 10205 10206 10207 10207 10208 10208 10208 10209 10209 10208 10208 10208 10208 10208 10208 10207 10207 10206 10206 10205 10204 10203 10201 10199 10197 10195 10193 10192 10190 10188 10186